Location: Zeiss-Gro�planetarium Berlin
(52.5430°N, 13.4281°E)
Time: 22:04:13
(UTC+01:00)

ISS - Pass Details

Date: 29 September 2020
Orbit: 417 x 420 km, 51.6° (Epoch: 27 October)

Event Time Altitude Azimuth Distance (km) Brightness Sun altitude
Rises 21:04:34 0° 281° (W) 2,371 1.5 -21.2°
Reaches altitude 10° 21:06:44 10° 274° (W) 1,505 0.0 -21.5°
Enters shadow 21:09:24 36° 228° (SW) 680 -2.6 -21.9°
